Погода в Петруни

Погода в Петруни : погода сейчас, прогноз погоды и архив. Всё, что Вы хотите узнать о погоде в Петруни!

Поиск расширенной информации на нашем сайте:

Полезная информация: котокафе

Другие новости

Новости СМИ2

Главная страница сайта

Новости сайта

03.07.2017

Напоминаем, что на нашем специализированном сайте Метеоцентр.Азия вы можете получить высокодетализированные автоматические прогнозы погоды по пунктам России, СНГ и мира в авиационном формате (включающие направление и скорость ветра, видимость, явления погоды, количество и форму облачности, нижнюю и верхнюю границу облачности).

Рекомендуем: Лада с пробегом купить авто с пробегом.

Погода в Петруни - сегодня

Время (UTC), дата Ветер
(°,м/с) 
Видим.   Явления Облачность Т
(°С)
Тd
(°С)
f(%) Тe
(°С)
Pmin
(гПа)
dP
(гПа)
Po
(мм)
O2
(г/м3)
Тmin Tmax R s Состояние
почвы
18 20.11.17 190 (Ю) 28000 м    10/10 660 м 
[Sc]
-5 -6.7 88 -6  1014.7  0.3  755  311           
21 20.11.17 110 (В) 29000 м    10/10 700 м 
[Sc]
-5.5 -7.3 87 -5  1014.2  -0.5  755  311           
00 21.11.17 030 (СВ) 27000 м    10/10 960 м 
[Sc]
-6.1 -7.6 89 -8  1013  -1.3  754  311           
03 21.11.17 040 (СВ) 6000 м  слаб. снег  10/0 средняя 
[As op]
-6.2 -7.7 89 -9  1012.1  -0.8  753  311  -6.3    0.2  27  очень
неравномерный
сухой снег
(сугробы, заносы) 
06 21.11.17 040 (СВ) 8000 м  слаб. снег  10/0 средняя 
[As op]
-6.6 -7.8 91 -8  1012.5  0.4  753  312  -6.6         
09 21.11.17 040 (СВ) 35000 м  {снег}  10/10 1140 м 
[Sc]
-7.3 -9 88 -9  1015.5  2.9  756  314           
12 21.11.17 050 (СВ) 35000 м  {снег}  9/9 1200 м 
[Sc]
-9.8 -11.5 87 -13  1017.8  2.2  757  318           
15 21.11.17 050 (СВ) 35000 м    10/0 средняя 
[Ac und]
-10.4 -12.4 85 -13  1019.6  1.8  759  319    -6  0.6     
18 21.11.17 030 (СВ) 35000 м    ясно 
-15.7 -17.6 85 -21  1020.9  1.1  759  326           
21 21.11.17 030 (СВ) 40000 м    1/0 средняя 
[Ac lent]
-19.4 -21.3 85 -24  1021.7  0.6  760  331           
00 22.11.17 030 (СВ) 35000 м    5/0 средняя, верхняя 
[Ac As|Ci fib]
-18.6 -20.5 85 -25  1021.1  -0.5  760  330           
03 22.11.17 030 (СВ) 30000 м    8/0 средняя, верхняя 
[Ac As|Ci]
-18.8 -21.4 80 -25  1020.5  -0.6  759  330  -20.1      27  очень
неравномерный
сухой снег
(сугробы, заносы) 
06 22.11.17 040 (СВ) 30000 м    10/0 средняя 
[Ac As]
-15.2 -17.2 85 -21  1019.9  -0.5  759  325           
09 22.11.17 050 (СВ) 5{10}  4200 м  слаб. снег  10/10 240 м 
[Frnb|Ns]
-10.2 -11.5 90 -15  1019.1  -0.6  758  319           
12 22.11.17 050 (СВ) 29000 м  {снег}  10/10 1080 м 
[Sc]
-9.5 -12.1 81 -13  1019.7  0.6  759  318           
15 22.11.17 060 (СВ) 30000 м    10/10 1350 м 
[Sc]
-9 -11.9 79 -13  1019.4  -0.3  758  317    -9     
18 22.11.17 060 (СВ) 28000 м    10/0 средняя 
[Ac und]
-8.6 -11.4 80 -12  1019  -0.4  758  317           
21 22.11.17 070 (В) 6{10}  3200 м  снег  10/10 100 м 
[Frnb|Ns]
-8.5 -10.4 86 -14  1018.6  -0.4  758  316           
00 23.11.17 070 (В) 5{10}  5000 м  слаб. снег  10/10 240 м 
[Frnb|Ns]
-8.7 -11.1 83 -13  1017.5  -1.1  757  316           
03 23.11.17 070 (В) 6{10}  6000 м  слаб. снег  10/3 300 м средняя, верхняя 
[Frnb|As op|Cs]
-9.7 -11.8 85 -15  1016.4  -1.1  756  317  -9.8    27  очень
неравномерный
сухой снег
(сугробы, заносы) 
06 23.11.17 070 (В) 5{10}  27000 м  в посл. час снег  10/0 средняя 
[Ac As]
-9.5 -12.5 79 -14  1015.2  -1.2  755  316           
09 23.11.17 070 (В) 35000 м    9/0 средняя 
[Ac As]
-9.6 -12.6 79 -13  1014.9  -0.3  755  317           
12 23.11.17 080 (В) 35000 м    10/0 средняя 
[Ac As]
-9.5 -12.5 79 -12  1014.5  -0.4  755  316           
15 23.11.17 070 (В) 35000 м    10/0 средняя 
[Ac As]
-10.4 -13.2 80 -13  1012.8  -1.7  754  317    -8.8  0.8     
18 23.11.17 070 (В) 35000 м    10/0 средняя 
[Ac As]
-10.1 -13.7 75 -13  1010.6  -2.2  752  316           
Время (UTC), дата Ветер
(°,м/с) 
Видим.   Явления Облачность Т
(°С)
Тd
(°С)
f(%) Тe
(°С)
Pmin
(гПа)
dP
(гПа)
Po
(мм)
O2
(г/м3)
Тmin Tmax R s Состояние
почвы

Для получения пояснительной информации подведите курсор к названию столбца.

ПОГОДА в Петруни - архив

Всё, что Вы хотите узнать о погоде в Петруни - удобно и подробно!

Выберите нужную дату (начиная с 1 января 2015* года) и нажмите кнопку "Найти".
Будут отображены архивные сводки погоды по пункту Петрунь, начиная с указанной даты.


Отображать данные в формате CSV (для использования в таблицах Excel)


Внимание! Наш архив погоды предназначен исключительно для личного некоммерческого использования в познавательных целях. Если Вам необходимы официальные справки о состоянии погоды (для производственных, юридических, коммерческих и т.п. целей), обращайтесь в органы Росгидромета.

*Примечание: данная дата относится к архиву по метеостанциям СССР (Россия, СНГ, Балтия).
Архив по метеостанциям Зарубежной Европы и Азии (кроме Китая) хранится 10 дней, по другим регионам земного шара (Китай, Африка, Америка, Австралия, Океания) - 1 день.

Петрунь - район местоположения метеостанции


Название, широта, долгота, высота метеостанции:
Петрунь 66.5°ш. 60.8°д. 58 м над ур. моря [Российская Федерация]

Дополнительная информация

В oтличие oт бoльшинства пoгoдных сайтoв мы публикуем пoдрoбную метеoинфoрмацию в детальнoм прoфессиoнальнoм фoрмате.

Характеристики температуры и влажнoсти вoздуха измеряются на высoте 2 м в тени вдали oт зданий и деревьев.
Скoрoсть ветра измеряется на высoте 10 м (на урoвне рoста челoвека скoрoсть ветра ниже в 1.5-2 раза). Если метеoстанция нахoдится в гoрoде или в лесу, тo скoрoсть ветра занижена на 2-4 м/с пo сравнению с oткрытым местoм. Скoрoсть ветра над акватoриями крупных рек и oзёр, а также на вершинах хoлмoв на 2-5 м/с выше, чем в oбычных услoвиях.
Атмoсфернoе давление в разных тoчках местнoсти мoжет значительнo oтличаться oт давления на метеoстанции, в зависимoсти oт услoвий рельефа (при пoдъёме на 10 м давление пoнижается примернo на 1 мм рт.ст.).